Golden Valley, AZ

7:37 AM MST on September 30, 2016 (GMT -0700)
Kingman

Weather History for KIGM - November, 2012

Change the Weather History Date:

Monday, November 12, 2012

  Actual Average Record
Temperature  
Mean Temperature 41 °F 52 °F  
Max Temperature 58 °F 66 °F 85 °F (1914)
Min Temperature 23 °F 38 °F 22 °F (1950)
Degree Days  
Heating Degree Days 24 13  
Month to date heating degree days 120 131  
Since 1 July heating degree days 206 270  
Cooling Degree Days 0 0  
Month to date cooling degree days 0 0  
Year to date cooling degree days 2297 2092  
Moisture  
Dew Point 7 °F    
Average Humidity 29    
Maximum Humidity 46    
Minimum Humidity 12    
Precipitation  
Precipitation 0.00 in 0.02 in 1.35 in (1985)
Month to date precipitation T 0.28  
Year to date precipitation 6.88 7.28  
Sea Level Pressure  
Sea Level Pressure 30.25 in    
Wind  
Wind Speed 8 mph (ENE)    
Max Wind Speed 14 mph    
Max Gust Speed 23 mph    
Visibility 10 miles    
Events      
T = Trace of Precipitation, MM = Missing Value Source: NWS Daily Summary

Daily Weather History Graph

Daily Weather History Graph

Search for Another Location

Airport or City:

Trip Planner

Search our weather history database for the weather conditions in past years. The results will help you decide how hot, cold, wet, or windy it might be!

Date:

Astronomy

Nov. 12, 2012 Rise Set
Actual Time 7:08 AM MST 5:31 PM MST
Civil Twilight 6:41 AM MST 5:58 PM MST
Nautical Twilight 6:10 AM MST 6:28 PM MST
Astronomical Twilight 5:40 AM MST 6:58 PM MST
Moon 5:40 AM MST (11/12) 4:38 PM MST (11/12)
Length of Visible Light 11h 16m
Length of Day
10h 22m
Waning Crescent, 2% of the Moon is Illuminated
Nov 12
Waning Crescent
Nov 13
New
Nov 20
First Quarter
Nov 28
Full
Dec 6
Last Quarter

Hourly Weather History & Observations

Time (MST) Temp. Windchill Dew Point Humidity Pressure Visibility Wind Dir Wind Speed Gust Speed Precip Events Conditions
12:51 AM 25.0 °F 20.7 °F 6.1 °F 45% 30.35 in 10.0 mi NE 3.5 mph - N/A   Clear
1:51 AM 26.1 °F 19.4 °F 6.1 °F 43% 30.33 in 10.0 mi East 5.8 mph - N/A   Clear
2:51 AM 28.0 °F 20.0 °F 7.0 °F 41% 30.30 in 10.0 mi ENE 8.1 mph - N/A   Clear
3:51 AM 28.0 °F 21.7 °F 7.0 °F 41% 30.30 in 10.0 mi NE 5.8 mph - N/A   Clear
4:51 AM 24.1 °F 19.7 °F 5.0 °F 44% 30.32 in 10.0 mi East 3.5 mph - N/A   Clear
5:51 AM 28.0 °F - 7.0 °F 41% 30.32 in 10.0 mi Calm Calm - N/A   Clear
6:51 AM 28.0 °F 21.7 °F 6.1 °F 39% 30.33 in 10.0 mi ENE 5.8 mph - N/A   Clear
7:51 AM 30.0 °F 25.2 °F 8.1 °F 40% 30.34 in 10.0 mi East 4.6 mph - N/A   Clear
8:51 AM 39.9 °F 35.8 °F 10.0 °F 29% 30.33 in 10.0 mi NNE 5.8 mph - N/A   Clear
9:51 AM 46.0 °F 41.4 °F 8.1 °F 21% 30.31 in 10.0 mi North 9.2 mph - N/A   Clear
10:51 AM 50.0 °F - 7.0 °F 18% 30.28 in 10.0 mi NNE 9.2 mph - N/A   Clear
11:51 AM 52.0 °F - 7.0 °F 16% 30.26 in 10.0 mi NNE 11.5 mph - N/A   Clear
12:51 PM 54.0 °F - 6.1 °F 15% 30.22 in 10.0 mi NNE 11.5 mph - N/A   Clear
1:51 PM 55.9 °F - 5.0 °F 13% 30.19 in 10.0 mi NNE 10.4 mph 23.0 mph N/A   Clear
2:51 PM 57.0 °F - 5.0 °F 12% 30.17 in 10.0 mi NNE 12.7 mph - N/A   Clear
3:51 PM 57.0 °F - 6.1 °F 13% 30.16 in 10.0 mi NNE 10.4 mph - N/A   Clear
4:51 PM 55.0 °F - 7.0 °F 15% 30.17 in 10.0 mi NNE 8.1 mph - N/A   Clear
5:51 PM 46.9 °F - 7.0 °F 20% 30.18 in 10.0 mi NE 8.1 mph - N/A   Clear
6:51 PM 43.0 °F 37.7 °F 8.1 °F 24% 30.19 in 10.0 mi East 9.2 mph - N/A   Clear
7:51 PM 41.0 °F 35.2 °F 8.1 °F 26% 30.22 in 10.0 mi East 9.2 mph - N/A   Clear
8:51 PM 39.9 °F 33.9 °F 8.1 °F 27% 30.20 in 10.0 mi ESE 9.2 mph - N/A   Clear
9:51 PM 37.9 °F 30.5 °F 8.1 °F 29% 30.19 in 10.0 mi ESE 11.5 mph - N/A   Clear
10:51 PM 37.0 °F 31.6 °F 8.1 °F 30% 30.20 in 10.0 mi East 6.9 mph - N/A   Clear
11:51 PM 35.1 °F 29.3 °F 8.1 °F 33% 30.19 in 10.0 mi ESE 6.9 mph - N/A   Clear